Location: Caltech
(34.1382°N, 118.1253°W)
Time: 06:55:21
(UTC-07:00)

Iridium 65 - Visible Passes

Search period start: 21 June 2018 00:00
Search period end: 01 July 2018 00:00
Orbit: 776 x 779 km, 86.4° (Epoch: 20 June)

Date Brightness Start Highest point End Pass type
(mag) Time Alt. Az. Time Alt. Az. Time Alt. Az.
21 Jun 6.0 22:45:13 10° NNE 22:49:57 46° ENE 22:49:57 46° ENE visible
22 Jun 7.7 00:27:23 10° NW 00:30:25 16° W 00:30:25 16° W visible
22 Jun 6.8 22:12:22 10° NNE 22:16:34 24° E 22:16:38 24° E visible
22 Jun 6.9 23:52:42 10° NNW 23:57:07 31° W 23:57:07 31° W visible
23 Jun 7.5 21:40:38 10° NE 21:42:46 12° ENE 21:43:19 12° E visible
23 Jun 5.8 23:18:43 10° N 23:23:48 60° W 23:23:48 60° W visible
24 Jun 5.4 22:45:09 10° N 22:50:22 70° E 22:50:30 70° E visible
25 Jun 8.1 00:29:40 10° WNW 00:30:21 10° WNW 00:30:59 10° W visible
25 Jun 6.2 22:11:59 10° NNE 22:16:46 35° E 22:17:13 35° E visible
25 Jun 7.4 23:53:22 10° NW 23:57:10 21° W 23:57:41 21° W visible
26 Jun 7.0 21:39:25 10° NE 21:43:03 19° E 21:43:55 18° E visible
26 Jun 6.4 23:19:02 10° NNW 23:23:52 40° W 23:24:25 38° WSW visible
27 Jun 5.5 22:45:14 10° N 22:50:28 79° W 22:51:09 66° SSW visible
28 Jun 5.7 22:11:49 10° N 22:16:56 53° E 22:17:53 47° ESE visible
28 Jun 7.9 23:54:30 10° NW 23:57:05 14° W 23:58:22 13° W visible
29 Jun 6.6 21:38:50 10° NNE 21:43:17 28° E 21:44:38 24° ESE visible
29 Jun 7.1 23:19:32 10° NNW 23:23:51 27° W 23:25:07 24° WSW visible
30 Jun 7.3 21:06:43 10° NE 21:09:30 14° ENE 21:11:24 12° E visible
30 Jun 6.1 22:45:27 10° NNW 22:50:30 52° W 22:51:53 40° SW visible
